SL-8 R/B

Satellite information

Favourite Embed

Satellite Type and Status

ROCKET BODYIN ORBIT

Key statistics

Satellite SL-8 R/B at a glance.

Uptime

17498

Days in orbit

Revolutions

≈ 13.8

Per day

Orbit

LEO

Low Earth Orbit

Inclination

82.9

Latest

Satellite identification and parameters

Extended collection of information and parameters for SL-8 R/B.

Object identification

Identified? True

Debris? False

Object name: SL-8 R/B

International designator: 1978-007B

Object number (NORAD): 10600

Object ID (CCSDS): 10600

Country: COMMONWEALTH OF INDEPENDENT STATES (CIS)

Current information (Y/N): Y

RCS size: LARGE

Orbital parameters

Period: 104.436 minutes

Inclination: 82.9395 deg

SMA: 7346.173 km

Apoapsis: 1002.499 km

Periapsis: 933.577 km

RAAN: 127.3008 deg

Eccentricy: 0.00469099

Argument of periapsis: 238.9582 deg

Mean anomaly: 120.6967 deg

Mean motion: 13.78830991 rev/day

Mean motion (dot): 0.0000018 rev/day2

B* drag term: 0.00016139879 1/REarth

Two-line elements (TLE)

Creation date: Dec. 14, 2025, 3:07 a.m.

Reference frame: TEME

Reference center: EARTH

Epoch: Dec. 13, 2025, 4:30 p.m. UTC

TLE line 0: 0 SL-8 R/B

TLE line 1: 1 10600U 78007B 25347.68810331 .00000180 00000-0 16140-3 0 9994

TLE line 2: 2 10600 82.9395 127.3008 0046910 238.9582 120.6967 13.78830991409039

Live tracking on map

Real-time ground track for satellite SL-8 R/B.

In-orbit conjunctions

A list of the most updated potential collisions computed for object SL-8 R/B.

Target Orbit TCA Probability of collision Miss distance Type
SL-8 DEB LEO 2025-11-24 15:49:39 0.0002267556 159.0 (m) DEBRIS
MOLNIYA 3-13 HEO 2025-07-20 21:19:23 0.002868904 79.0 (m) PAYLOAD
COSMOS 1275 DEB LEO 2024-12-14 03:51:08 0.0001253355 52.0 (m) DEBRIS
COSMOS 1428 LEO 2024-12-13 22:38:19 0.0002307254 295.0 (m) PAYLOAD
ELECTRON KICK STAGE R/B LEO 2024-11-17 14:22:34 0.001609794 496.0 (m) ROCKET BODY

Associated space launch

Navigation satellite providing location information for the Tsiklon-B navigation system

SL-8 R/B was lifted into orbit during the mission ‘Kosmos-3M | Parus 12’, on board a Kosmos-3M space rocket.

The launch took place on Jan. 17, 1978, 3:26 a.m. from 132/1 (132L).

For more information about the launch, click the button.

Launch to space Kosmos-3M | Parus 12
Kosmos-3M | Parus 12

Agency: N/A

Status: Launch Successful

Launch date: Jan. 17, 1978, 3:26 a.m. UTC

Rocket: Kosmos-3M

Launch pad: 132/1 (132L)

Location: Plesetsk Cosmodrome, Russian Federation

...

Latest news about this satellite

There are no fresh news available about this satellite. Check back as we update our databases every day.


Newsletter sign-up

Weekly statistics, charts and insights to help you stay on top of the space industry.